Tracking 32139 objects as of 15-Nov-2025
HD Live streaming from Space Station
objects crossing your sky now

FLOCK 3S 3

Track FLOCK 3S 3 now!
10-day predictions
FLOCK 3S 3 is classified as:


NORAD ID: 43788
Int'l Code: 2018-099AG
Perigee: 353.8 km
Apogee: 361.1 km
Inclination: 97.4 °
Period: 91.5 minutes
Semi major axis: 6728 km
RCS: Unknown
Launch date: December 3, 2018
Source: United States (US)
Launch site: AIR FORCE WESTERN TEST RANGE (AFWTR)
Your satellite tracking list
Your tracking list is empty




NASA's NSSDC Master Catalog

Two Line Element Set (TLE):
1 43788U 18099AG  25319.47594814  .00308629  00000-0  21907-2 0  9998
2 43788  97.4456  32.2190 0005391 255.3583 104.7083 15.73001754381720
Source of the keplerian elements: AFSPC